RH
59 62 62 63 63 60 58 59 61 60 61 68 75 84 88 94 93 90 85 84 86 87 96 97 96 95 95 84 78 84 89 89 91 99 92 91 92 93 97 84 99 96 96
62 61 63 69 62 65 67 67 64 65 65 69 75 86 92 94 96 93 87 83 84 87 90 96 96 96 97 84 84 88 95 93 91 97 97 95 93 94 90 95 95 94 99
64 59 59 64 66 68 68 68 70 72 70 64 71 78 84 89 91 91 92 88 86 88 94 94 93 95 96 98 93 93 93 97 91 94 96 95 94 94 97 96 97 97 98
62 56 57 57 57 58 66 70 71 73 71 72 70 74 78 82 88 94 95 93 89 90 91 95 93 92 93 94 96 84 93 94 94 94 93 97 96 98 96 94 97 96 96
64 58 60 59 62 65 71 75 76 76 77 82 71 74 76 80 84 91 91 93 92 90 91 92 95 93 93 91 92 91 92 96 99 96 96 95 96 96 98 97 96 96 98
54 46 47 46 48 51 56 68 73 75 79 84 86 81 77 76 77 78 85 88 93 95 93 92 94 94 92 89 90 90 93 92 94 93 94 93 96 97 98 97 93 96 98
46 46 47 47 46 46 51 52 59 61 65 76 84 87 84 79 77 76 82 85 91 94 93 92 93 95 90 88 87 87 89 88 90 90 91 93 88 88 92 96 97 96 99
42 45 48 51 52 49 53 56 58 61 63 65 70 79 83 85 80 77 79 89 91 93 92 94 94 93 90 87 84 83 85 80 84 82 85 88 86 86 85 96 98 98 97
42 43 46 51 52 54 55 60 62 61 60 62 64 66 72 80 82 77 79 85 88 84 91 93 93 92 90 86 83 80 78 80 80 82 84 86 86 85 84 86 94 98 97
46 41 44 50 52 55 58 59 60 60 60 61 60 59 68 73 78 79 76 77 78 84 88 92 92 92 88 84 82 81 77 75 76 74 80 80 79 80 83 86 85 90 96
51 45 52 55 55 58 59 60 61 61 61 61 62 64 64 65 70 73 73 73 73 76 81 85 88 89 86 81 79 78 74 72 71 70 73 76 76 79 80 83 85 87 88
55 54 58 59 60 61 61 61 61 62 61 62 65 66 65 65 66 66 67 69 70 69 75 78 83 83 81 78 76 75 69 70 72 72 75 75 62 78 83 88 84 86 86
64 61 61 61 63 63 63 63 64 65 65 67 70 70 70 71 71 70 68 66 65 64 66 72 78 76 77 74 71 70 70 71 71 73 76 75 78 80 86 88 90 90 79
57 63 62 63 67 66 66 66 67 68 69 72 75 77 76 76 76 75 74 72 70 69 68 66 69 72 71 69 65 61 64 68 67 72 76 76 77 80 82 85 90 87 93
65 62 63 66 69 70 68 67 69 70 72 76 78 78 78 78 79 78 79 79 78 73 73 69 66 68 67 59 66 63 66 69 69 71 72 76 77 73 76 82 91 91 93
64 61 64 66 69 74 71 69 71 72 75 78 79 77 78 80 81 82 82 85 83 82 78 75 72 72 56 56 59 64 67 67 70 73 74 77 74 78 71 72 74 83 90
62 64 66 68 72 70 70 73 75 76 78 81 79 79 81 82 81 84 86 82 83 88 83 81 76 72 69 62 62 66 79 77 75 77 77 74 66 78 87 76 70 74 76
63 63 63 67 68 70 68 73 72 73 76 77 79 80 82 83 82 86 88 89 89 89 84 80 79 76 67 65 65 65 78 86 85 81 79 79 78 79 86 81 83 87 85
64 65 68 72 72 67 68 74 67 71 72 70 78 78 81 82 83 84 85 87 90 88 89 83 81 80 73 70 69 68 81 88 90 86 83 79 79 74 70 86 85 85 85
65 66 70 70 65 58 71 72 64 71 64 68 74 80 83 85 85 88 86 88 92 91 87 83 84 79 76 70 70 69 82 91 90 92 88 79 81 73 71 78 86 85 79
68 67 69 66 58 63 68 63 62 59 58 70 74 78 78 80 85 89 91 91 91 91 90 90 86 88 82 82 72 71 78 83 86 88 88 85 77 74 75 72 85 80 77
70 66 66 62 57 62 64 59 57 54 64 70 75 75 70 67 68 90 89 92 94 95 90 90 84 84 86 76 74 72 70 72 85 85 82 82 78 76 76 75 72 75 74
75 66 65 63 62 65 63 60 54 54 59 66 69 69 65 70 79 90 88 91 92 96 92 93 92 84 79 90 78 75 72 70 72 83 81 78 77 76 75 75 76 73 84
64 59 58 64 69 69 62 59 55 56 63 66 66 65 71 66 72 81 90 93 92 92 92 93 92 89 88 88 89 81 80 73 70 68 82 83 81 78 79 80 81 80 88
62 62 67 74 74 74 68 59 56 60 64 64 64 66 67 72 72 78 82 90 90 91 94 90 89 92 87 83 80 83 88 85 77 76 93 94 95 94 94 94 89 94 93
80 85 86 89 83 78 69 60 61 63 69 69 67 68 70 71 76 83 81 70 69 68 70 76 79 79 78 77 76 79 84 84 83 86 92 93 92 95 96 94 97 98 96
Wind_Speed
3 4 2 3 3 3 3 4 4 4 1 1 2 2 3 3 3 4 5 5 4 5 4 3 4 5 4 5 6 6 8 7 5 4 5 5 5 5 4 6 4 6 9
3 2 1 3 3 5 6 6 6 6 3 2 2 2 1 3 4 4 5 5 5 5 3 4 4 5 4 6 6 7 5 3 3 3 3 5 5 3 3 4 3 3 2
2 2 3 4 4 6 7 6 7 6 4 3 1 2 2 2 3 2 3 3 5 4 3 4 4 4 4 4 5 5 6 6 7 3 2 4 3 4 3 6 4 4 3
2 0 2 5 5 6 5 6 6 5 4 3 3 3 3 3 3 3 3 5 5 5 4 4 4 4 3 4 4 5 5 5 7 4 2 4 2 4 4 3 4 4 5
4 5 5 5 5 6 6 6 6 6 5 4 5 4 5 4 4 4 6 5 5 6 5 5 4 5 3 4 5 6 6 3 3 4 3 1 2 2 2 2 1 3 4
4 4 4 5 5 6 6 6 7 6 6 5 6 7 8 7 5 4 4 4 4 4 5 5 5 5 5 5 4 5 6 5 4 4 4 2 2 2 2 2 2 2 4
2 4 6 7 7 8 8 6 7 8 7 6 5 6 8 7 8 7 5 5 4 3 5 4 4 4 4 5 5 5 5 5 5 5 4 3 2 2 2 1 2 1 1
2 2 5 5 6 7 7 8 8 7 8 7 7 6 7 4 5 6 5 5 5 5 5 5 5 6 5 5 5 3 4 5 4 6 5 4 3 3 3 2 2 1 1
1 3 5 5 6 6 7 7 7 7 8 8 6 7 7 6 6 7 6 5 5 5 6 6 6 6 6 5 5 4 5 5 5 5 5 3 3 3 3 3 3 3 2
2 4 4 5 5 5 5 7 7 7 7 7 6 6 7 6 6 5 7 6 6 5 6 6 6 6 6 6 5 4 5 5 4 4 5 4 3 3 3 2 1 0 1
1 2 2 5 5 5 5 6 6 7 7 7 7 7 7 7 6 6 6 6 6 6 7 6 6 6 6 6 5 6 6 6 6 5 5 6 4 4 3 2 1 1 1
1 2 3 5 5 6 6 7 7 7 7 6 6 7 7 7 7 7 7 6 6 6 7 6 7 7 6 6 6 6 6 6 7 6 6 7 3 4 3 2 2 1 0
0 1 5 6 6 7 7 7 7 7 7 6 7 7 7 7 7 7 7 7 7 7 7 6 7 7 7 7 7 7 6 6 6 6 6 6 5 5 3 3 3 2 1
1 2 5 6 6 5 6 6 7 6 6 6 6 7 7 7 7 7 7 7 7 7 7 6 7 7 7 6 6 6 6 6 6 6 6 6 6 6 6 5 5 3 3
1 3 4 6 6 6 6 6 6 6 6 7 7 7 7 7 7 8 8 7 7 7 7 7 7 7 6 5 7 7 7 7 7 6 6 6 7 10 8 3 5 4 3
3 5 5 5 6 6 6 5 6 7 6 7 7 7 7 7 7 7 8 7 8 7 7 7 7 7 6 11 14 11 6 7 7 7 7 7 10 10 13 12 11 8 5
5 6 6 5 4 6 6 6 6 6 6 6 6 7 7 7 7 7 8 9 9 8 8 8 7 8 6 14 15 16 6 7 7 7 6 6 6 10 6 10 13 12 13
6 5 5 6 5 5 6 6 6 6 6 6 6 7 7 7 7 7 7 7 5 7 8 8 7 7 7 14 15 15 7 7 8 7 7 7 7 7 7 6 6 6 6
4 4 4 4 4 4 5 5 6 6 6 6 6 6 7 8 8 9 9 8 6 7 5 6 9 8 8 14 15 12 6 6 8 7 8 8 7 12 16 7 8 7 6
4 6 6 3 4 4 4 5 6 6 6 6 7 7 7 6 8 7 9 6 5 8 7 9 7 11 9 14 16 13 4 6 6 6 7 16 11 16 18 10 9 9 7
6 6 5 5 5 4 3 6 6 7 6 6 6 6 6 7 7 7 5 6 8 8 7 8 8 7 7 9 15 15 6 5 6 6 5 6 17 20 19 20 10 10 7
6 5 4 5 5 5 3 6 6 6 6 6 6 7 7 6 6 7 7 6 6 7 10 9 10 5 6 11 13 15 15 13 7 8 7 7 16 17 19 17 17 17 13
7 3 4 6 7 6 5 6 7 7 7 7 7 7 7 6 6 6 7 6 5 5 7 6 8 10 8 5 16 17 17 16 11 6 11 16 17 17 15 19 20 17 8
5 3 5 7 8 6 6 7 8 8 7 7 8 8 7 9 7 5 5 5 6 6 6 6 8 9 9 9 5 6 7 12 9 11 9 12 13 14 11 10 13 8 7
6 4 6 7 9 8 8 7 8 7 7 8 9 9 7 7 8 7 7 5 6 7 7 8 8 10 12 11 19 18 9 7 9 13 3 3 5 7 6 5 7 6 7
6 6 7 7 10 8 9 10 7 7 7 9 7 6 6 7 7 7 9 11 15 16 17 20 15 9 18 23 25 26 23 22 22 10 7 6 7 9 8 8 8 8 11
Wind_Direction
54 104 147 170 199 244 265 272 287 279 275 315 336 342 302 306 304 306 303 313 309 332 338 342 328 323 329 324 329 318 317 328 322 314 299 289 272 275 273 279 237 238 239
86 124 245 265 307 295 284 287 277 277 258 212 239 235 265 282 265 281 298 303 321 326 325 342 320 324 325 324 332 332 323 283 315 296 274 328 330 324 17 355 353 281 307
193 257 260 269 289 291 294 294 289 282 268 240 284 302 306 304 301 289 301 297 305 302 306 313 319 320 323 317 316 313 330 315 319 250 249 335 321 321 339 22 352 23 20
186 38 347 332 326 305 310 299 296 292 262 247 236 231 228 255 241 247 262 291 303 294 306 294 301 313 311 318 305 315 309 314 324 323 185 222 264 319 343 14 13 45 40
48 20 354 337 324 338 320 310 306 295 283 256 226 241 258 245 265 270 284 289 291 279 281 279 289 296 305 302 303 315 323 305 303 324 321 316 277 235 286 293 10 59 53
33 23 12 14 0 352 0 355 342 317 311 281 263 247 255 271 280 269 268 267 267 275 272 277 279 283 289 294 301 306 310 313 315 314 318 332 333 326 318 321 347 101 63
102 42 29 13 4 4 360 356 357 330 329 319 291 268 259 256 257 267 261 274 269 254 264 262 271 271 277 292 303 308 304 309 320 320 313 318 323 302 297 257 247 298 128
141 71 45 27 9 359 358 358 350 338 341 341 324 301 273 255 259 258 258 257 254 253 251 252 251 260 272 282 291 288 289 297 306 312 317 314 323 331 332 315 303 270 194
146 53 35 25 9 359 351 351 345 339 342 334 329 323 316 304 280 272 253 256 262 267 262 255 255 254 258 260 274 277 288 297 295 295 299 295 300 322 331 334 330 318 255
81 59 43 12 350 349 336 349 348 324 315 325 331 322 304 312 303 294 284 269 268 255 264 264 258 264 260 259 253 266 273 280 278 280 300 301 294 310 324 328 322 344 286
85 88 47 350 334 339 351 332 336 335 336 337 326 328 327 328 324 310 297 283 278 275 266 258 256 249 251 247 250 253 262 267 275 274 261 274 284 294 303 315 315 299 190
139 113 358 327 342 348 347 340 334 334 325 319 324 324 322 330 333 326 318 311 293 291 270 267 258 253 245 244 236 245 249 253 263 267 274 271 264 276 280 297 283 259 216
64 7 352 346 344 340 337 330 327 324 320 323 327 328 331 333 327 323 321 321 316 302 297 281 266 262 245 238 234 233 242 243 247 253 254 257 256 262 248 242 242 238 178
135 349 343 333 323 306 301 306 307 310 311 319 322 324 324 324 320 315 319 323 321 313 306 291 278 270 265 246 237 234 241 242 242 243 242 245 236 238 240 226 222 215 208
156 327 302 295 301 327 330 326 318 322 326 333 335 330 322 320 321 332 330 324 319 314 303 303 294 283 269 259 239 227 231 235 244 244 242 238 241 245 242 229 225 198 201
283 297 290 294 306 307 300 308 315 323 334 337 332 327 329 326 324 325 326 322 319 319 319 318 306 301 292 281 265 252 227 227 226 232 230 227 242 240 241 240 235 214 190
258 274 280 273 293 330 328 326 319 315 328 323 317 318 320 324 324 318 323 329 327 321 321 317 315 306 295 297 287 272 241 225 225 222 221 229 220 228 221 248 245 236 231
252 289 317 320 316 312 314 316 324 329 329 326 322 319 321 319 317 318 314 310 306 313 315 311 305 306 301 303 297 287 265 246 232 223 216 221 220 213 205 211 230 232 236
252 249 257 240 266 289 308 323 329 330 331 327 323 322 321 321 321 321 319 311 311 318 306 303 308 305 300 304 301 292 267 257 251 233 219 214 217 224 229 202 218 226 231
236 266 252 231 268 288 314 322 316 322 317 314 309 304 303 303 308 302 311 303 298 299 310 307 293 298 301 308 307 298 264 263 254 239 236 238 225 229 228 218 203 221 219
256 250 230 237 244 279 302 307 309 303 285 289 293 293 294 297 286 295 289 297 308 309 305 299 301 285 282 291 306 302 280 252 251 245 242 232 241 241 235 228 200 212 186
291 273 248 269 268 277 286 291 294 283 292 296 296 298 300 299 299 294 299 295 291 303 313 314 314 296 282 294 301 302 294 281 251 250 240 235 235 242 242 231 227 220 209
301 289 255 277 293 282 252 278 276 293 300 301 293 289 291 280 277 284 293 301 294 281 296 300 305 307 310 271 297 302 297 288 281 255 242 236 236 241 247 244 227 218 192
293 289 301 287 283 291 250 237 261 272 276 281 285 284 278 292 281 267 260 274 289 293 289 293 296 299 304 305 294 291 296 295 288 278 259 238 235 228 224 239 232 202 188
289 282 277 276 276 278 276 257 253 264 269 271 271 274 268 266 277 264 258 252 247 247 276 280 289 301 303 299 304 306 294 270 265 283 263 231 223 234 228 220 221 184 179
286 285 274 263 272 273 272 274 246 255 255 269 274 261 269 271 269 274 289 267 270 281 286 288 285 285 289 302 308 308 302 296 292 268 252 245 240 238 234 218 207 197 194